Bookmark and Share
Track history (hours):
 

Apiliotis

Last reported at 2014-Apr-17 22:28 UTC. Time now 2014-Apr-20 11:41 UTC.
Position N 35°53' E 024°45'.

Length 79 m; draft 4.5 m.

Type: Ship. MMSI: 240438000.

NotesDate/timePositionNaut miles runAvg speedWind from/ knotsBaromVisibWave heightAir tempDewpointWater temp
2014-Apr-17 22:28N 35°53' E 024°45'8 9.0
2014-Apr-17 21:33N 36°00' E 024°49'9 9.4
2014-Apr-17 20:33N 36°09' E 024°54'1010.1
2014-Apr-17 19:33N 36°18' E 024°59'1110.8
2014-Apr-17 18:33N 36°28' E 025°06'1010.2
2014-Apr-17 17:33N 36°37' E 025°10'1110.8
2014-Apr-17 16:33N 36°48' E 025°13'1111.0
2014-Apr-17 15:33N 36°58' E 025°16'9 9.4
2014-Apr-17 14:33N 37°06' E 025°22'0 0.1
2014-Apr-17 13:33N 37°06' E 025°22'0 0.0
2014-Apr-17 12:33N 37°06' E 025°22'0 0.1
2014-Apr-17 11:33N 37°06' E 025°22'2424.5
2014-Apr-17 10:33N 37°29' E 025°13'2424.2
2014-Apr-17 09:33N 37°05' E 025°09'0 0.0
2014-Apr-17 06:17N 37°05' E 025°09'0 0.0
2014-Apr-17 05:24N 37°05' E 025°09'2 1.5
2014-Apr-17 04:18N 37°06' E 025°07'810.4
2014-Apr-17 03:33N 37°13' E 025°12'1110.6
2014-Apr-17 02:33N 37°23' E 025°17'6 5.6
2014-Apr-17 01:33N 37°28' E 025°19'0 0.0
2014-Apr-17 00:33N 37°28' E 025°19'0 0.0
2014-Apr-16 23:33N 37°28' E 025°19'0 0.0
2014-Apr-16 22:33N 37°28' E 025°19'0 0.0
2014-Apr-16 21:33N 37°28' E 025°19'0 0.0
2014-Apr-16 20:33N 37°28' E 025°19'0 0.0
2014-Apr-16 19:33N 37°28' E 025°19'0 0.1
2014-Apr-16 18:33N 37°28' E 025°19'9 9.0
2014-Apr-16 17:33N 37°24' E 025°09'1111.0
2014-Apr-16 16:33N 37°15' E 025°01'1111.0
2014-Apr-16 15:33N 37°06' E 024°54'1111.0
2014-Apr-16 14:32N 36°56' E 024°47'1110.8
2014-Apr-16 13:33N 36°49' E 024°38'3 2.2
2014-Apr-16 12:15N 36°47' E 024°35'0 0.0
2014-Apr-16 11:30N 36°47' E 024°35'0 0.0
2014-Apr-16 10:33N 36°47' E 024°35'5 4.5
2014-Apr-16 09:32N 36°47' E 024°29'4 3.3
2014-Apr-16 08:14N 36°43' E 024°28'0 0.0
2014-Apr-16 07:31N 36°43' E 024°28'0 0.0
2014-Apr-16 06:30N 36°43' E 024°28'0 0.0
2014-Apr-16 05:33N 36°43' E 024°28'0 0.0
2014-Apr-16 04:33N 36°43' E 024°28'0 0.0
2014-Apr-16 03:33N 36°43' E 024°28'0 0.0
2014-Apr-16 02:30N 36°43' E 024°28'0 0.0
2014-Apr-16 01:27N 36°43' E 024°28'0 0.0
2014-Apr-16 00:27N 36°43' E 024°28'0 0.0
2014-Apr-15 23:24N 36°43' E 024°28'0 0.0
2014-Apr-15 21:14N 36°43' E 024°28'1 1.8
2014-Apr-15 20:25N 36°43' E 024°26'7 8.2
2014-Apr-15 19:33N 36°50' E 024°28'1010.2
2014-Apr-15 18:33N 36°57' E 024°37'4 3.1
2014-Apr-15 17:20N 36°59' E 024°40'0 0.0
2014-Apr-15 16:25N 36°59' E 024°40'12 6.4
2014-Apr-15 14:33N 37°04' E 024°27'26 4.3
2014-Apr-15 08:33N 37°30' E 024°29'1110.7
2014-Apr-15 07:34N 37°31' E 024°42'1110.5
2014-Apr-15 06:30N 37°30' E 024°56'5 5.5
2014-Apr-15 05:33N 37°25' E 024°58'2 0.9
2014-Apr-15 03:33N 37°26' E 024°56'0 0.0
2014-Apr-15 02:34N 37°26' E 024°56'0 0.0
2014-Apr-15 01:32N 37°26' E 024°56'0 0.0
2014-Apr-15 00:32N 37°26' E 024°56'0 0.0
2014-Apr-14 23:32N 37°26' E 024°56'0 0.0
2014-Apr-14 22:33N 37°26' E 024°56'0 0.0
2014-Apr-14 21:33N 37°26' E 024°56'0 0.0
2014-Apr-14 20:33N 37°26' E 024°56'0 0.0
2014-Apr-14 19:33N 37°26' E 024°56'0 0.0
2014-Apr-14 18:33N 37°26' E 024°56'0 0.0
2014-Apr-14 17:33N 37°26' E 024°56'0 0.0
2014-Apr-14 16:33N 37°26' E 024°56'0 0.0
2014-Apr-14 15:33N 37°26' E 024°56'2 2.3
2014-Apr-14 14:33N 37°27' E 024°59'10 9.8
2014-Apr-14 13:33N 37°32' E 025°09'0 0.0
2014-Apr-14 11:33N 37°32' E 025°09'1 0.6
2014-Apr-14 10:33N 37°32' E 025°09'1010.4
2014-Apr-14 09:33N 37°38' E 024°58'  
2014-Apr-09 12:32N 38°32' E 025°47'1111.5
2014-Apr-09 11:33N 38°21' E 025°43'1211.8
2014-Apr-09 10:33N 38°09' E 025°39'1211.7
2014-Apr-09 09:33N 37°59' E 025°34'1111.1
2014-Apr-09 08:33N 37°49' E 025°27'1111.3
2014-Apr-09 07:33N 37°38' E 025°23'1110.8
2014-Apr-09 06:33N 37°28' E 025°18'1 0.7
2014-Apr-09 05:33N 37°28' E 025°19'0 0.0
2014-Apr-09 04:33N 37°28' E 025°19'0 0.0
2014-Apr-09 03:33N 37°28' E 025°19'0 0.0
2014-Apr-09 02:33N 37°28' E 025°19'0 0.0
2014-Apr-09 01:33N 37°28' E 025°19'0 0.0
2014-Apr-09 00:33N 37°28' E 025°19'0 0.0
2014-Apr-08 23:33N 37°28' E 025°19'0 0.0
2014-Apr-08 22:33N 37°28' E 025°19'0 0.0
2014-Apr-08 21:33N 37°28' E 025°19'0 0.0
2014-Apr-08 20:33N 37°28' E 025°19'0 0.0
2014-Apr-08 19:33N 37°28' E 025°19'0 0.0
2014-Apr-08 18:33N 37°28' E 025°19'4 4.4
2014-Apr-08 17:33N 37°27' E 025°14'10 9.7
2014-Apr-08 16:33N 37°23' E 025°03'1010.0
2014-Apr-08 15:33N 37°16' E 024°54'10 9.9
2014-Apr-08 14:33N 37°09' E 024°45'10 2.4
2014-Apr-08 10:19N 36°60' E 024°40'7 9.1
2014-Apr-08 09:33N 36°55' E 024°34'9 9.2
2014-Apr-08 08:33N 36°48' E 024°26'5 4.6
2014-Apr-08 07:33N 36°43' E 024°27'0 0.0
2014-Apr-08 06:32N 36°43' E 024°27'1 0.5
2014-Apr-08 05:26N 36°43' E 024°27'0 0.1
2014-Apr-08 04:32N 36°43' E 024°27'0 0.0
2014-Apr-08 02:30N 36°43' E 024°27'0 0.0
2014-Apr-08 01:30N 36°43' E 024°27'0 0.0
2014-Apr-08 00:33N 36°43' E 024°27'0 0.0
2014-Apr-07 23:31N 36°43' E 024°27'0 0.0
2014-Apr-07 22:33N 36°43' E 024°27'  

Dump ship's entire track history

sailing weather and tide predictions

Apiliotis — SYVY — position and weather